| time (UTC) | temp F | wind direction | speed MPH | gust MPH | rain 1hr in | rain 24hr in | rain mn in | humidity % | barometer mb |
| 20260901031515 | 84 | 0 | 3.0 | 10.0 | 0.00 | 0.00 | 0.00 | 34 | 1018.1 |
| 20260901030515 | 85 | 0 | 2.0 | 11.0 | 0.00 | 0.00 | 0.00 | 33 | 1017.7 |
| 20260901025515 | 85 | 0 | 3.0 | 9.0 | 0.00 | 0.00 | 0.00 | 33 | 1017.5 |
| 20260901024555 | 85 | 0 | 3.0 | 9.0 | 0.00 | 0.00 | 0.00 | 32 | 1017.1 |
| 20260901023515 | 86 | 0 | 3.0 | 8.0 | 0.00 | 0.00 | 0.00 | 32 | 1016.9 |
| 20260901022515 | 86 | 0 | 4.0 | 12.0 | 0.00 | 0.00 | 0.00 | 31 | 1016.7 |
| 20260901021515 | 86 | 0 | 3.0 | 11.0 | 0.00 | 0.00 | 0.00 | 30 | 1016.2 |
| 20260901020555 | 87 | 0 | 2.0 | 6.0 | 0.00 | 0.00 | 0.00 | 30 | 1016.2 |
| 20260901015515 | 87 | 0 | 3.0 | 11.0 | 0.00 | 0.00 | 0.00 | 29 | 1015.9 |
| 20260901012557 | 89 | 0 | 3.0 | 11.0 | 0.00 | 0.00 | 0.00 | 28 | 1015.3 |
| 20260901011557 | 89 | 0 | 3.0 | 6.0 | 0.00 | 0.00 | 0.00 | 28 | 1015.2 |
| 20260901010516 | 90 | 0 | 2.0 | 8.0 | 0.00 | 0.00 | 0.00 | 28 | 1015.0 |
| 20260901005516 | 90 | 0 | 3.0 | 9.0 | 0.00 | 0.00 | 0.00 | 28 | 1015.0 |
| 20260901004517 | 91 | 0 | 3.0 | 11.0 | 0.00 | 0.00 | 0.00 | 28 | 1015.1 |
| 20260901003516 | 92 | 0 | 3.0 | 8.0 | 0.00 | 0.00 | 0.00 | 28 | 1015.3 |
| 20260901002557 | 93 | 0 | 3.0 | 9.0 | 0.00 | 0.00 | 0.00 | 28 | 1015.4 |
| 20260901001517 | 93 | 0 | 3.0 | 10.0 | 0.00 | 0.00 | 0.00 | 28 | 1015.5 |
| 20260901000556 | 94 | 0 | 3.0 | 12.0 | 0.00 | 0.00 | 0.00 | 27 | 1015.5 |
| 20260831235516 | 95 | 0 | 5.0 | 16.0 | 0.00 | 0.00 | 0.00 | 27 | 1015.8 |
| 20260831234637 | 95 | 0 | 2.0 | 11.0 | 0.00 | 0.00 | 0.00 | 27 | 1015.8 |
| 20260831233637 | 96 | 0 | 2.0 | 6.0 | 0.00 | 0.00 | 0.00 | 26 | 1016.0 |
| 20260831232516 | 96 | 0 | 3.0 | 13.0 | 0.00 | 0.00 | 0.00 | 26 | 1016.1 |
| 20260831231556 | 95 | 0 | 3.0 | 10.0 | 0.00 | 0.00 | 0.00 | 27 | 1016.0 |
| 20260831230556 | 96 | 0 | 2.0 | 8.0 | 0.00 | 0.00 | 0.00 | 26 | 1016.0 |
| 20260831225556 | 96 | 0 | 4.0 | 9.0 | 0.00 | 0.00 | 0.00 | 26 | 1015.8 |
| 20260831224636 | 97 | 0 | 2.0 | 6.0 | 0.00 | 0.00 | 0.00 | 25 | 1015.9 |
| 20260831223516 | 96 | 0 | 3.0 | 9.0 | 0.00 | 0.00 | 0.00 | 25 | 1015.9 |
| 20260831222516 | 97 | 0 | 3.0 | 9.0 | 0.00 | 0.00 | 0.00 | 26 | 1016.2 |
| 20260831221556 | 97 | 0 | 3.0 | 10.0 | 0.00 | 0.00 | 0.00 | 26 | 1016.6 |
| 20260831220516 | 97 | 0 | 4.0 | 11.0 | 0.00 | 0.00 | 0.00 | 26 | 1016.9 |
| 20260831214516 | 97 | 0 | 4.0 | 10.0 | 0.00 | 0.00 | 0.00 | 26 | 1017.2 |
| 20260831213636 | 97 | 0 | 4.0 | 10.0 | 0.00 | 0.00 | 0.00 | 26 | 1016.9 |
| 20260831212636 | 97 | 0 | 3.0 | 8.0 | 0.00 | 0.00 | 0.00 | 26 | 1017.1 |
| 20260831211636 | 97 | 0 | 2.0 | 10.0 | 0.00 | 0.00 | 0.00 | 27 | 1017.5 |
| 20260831210556 | 97 | 0 | 3.0 | 12.0 | 0.00 | 0.00 | 0.00 | 26 | 1017.6 |
| 20260831205556 | 96 | 0 | 4.0 | 11.0 | 0.00 | 0.00 | 0.00 | 26 | 1017.9 |
| 20260831204516 | 96 | 0 | 3.0 | 6.0 | 0.00 | 0.00 | 0.00 | 28 | 1018.2 |
| 20260831203636 | 95 | 0 | 4.0 | 10.0 | 0.00 | 0.00 | 0.00 | 28 | 1018.4 |
| 20260831202516 | 95 | 0 | 4.0 | 9.0 | 0.00 | 0.00 | 0.00 | 31 | 1018.8 |
| 20260831200516 | 94 | 0 | 4.0 | 12.0 | 0.00 | 0.00 | 0.00 | 31 | 1019.3 |
| 20260831195516 | 94 | 0 | 3.0 | 6.0 | 0.00 | 0.00 | 0.00 | 32 | 1019.3 |
| 20260831194516 | 93 | 0 | 3.0 | 8.0 | 0.00 | 0.00 | 0.00 | 32 | 1019.4 |
| 20260831193516 | 93 | 0 | 3.0 | 6.0 | 0.00 | 0.00 | 0.00 | 33 | 1019.3 |
| 20260831190516 | 92 | 0 | 4.0 | 10.0 | 0.00 | 0.00 | 0.00 | 33 | 1019.7 |
| 20260831185516 | 91 | 0 | 3.0 | 10.0 | 0.00 | 0.00 | 0.00 | 34 | 1019.9 |
| 20260831183556 | 91 | 0 | 3.0 | 8.0 | 0.00 | 0.00 | 0.00 | 35 | 1020.7 |
| 20260831182556 | 90 | 0 | 3.0 | 8.0 | 0.00 | 0.00 | 0.00 | 37 | 1020.5 |
| 20260831181516 | 91 | 0 | 5.0 | 10.0 | 0.00 | 0.00 | 0.00 | 36 | 1020.6 |
| 20260831180516 | 90 | 0 | 4.0 | 11.0 | 0.00 | 0.00 | 0.00 | 36 | 1020.8 |
| 20260831175516 | 90 | 0 | 3.0 | 10.0 | 0.00 | 0.00 | 0.00 | 36 | 1020.7 |
| 20260831174556 | 89 | 0 | 5.0 | 9.0 | 0.00 | 0.00 | 0.00 | 37 | 1020.7 |
| 20260831172515 | 89 | 0 | 1.0 | 6.0 | 0.00 | 0.00 | 0.00 | 38 | 1020.9 |
| 20260831171636 | 88 | 0 | 3.0 | 5.0 | 0.00 | 0.00 | 0.00 | 39 | 1021.0 |
| 20260831170515 | 88 | 0 | 4.0 | 8.0 | 0.00 | 0.00 | 0.00 | 39 | 1020.9 |
| 20260831165556 | 88 | 0 | 2.0 | 8.0 | 0.00 | 0.00 | 0.00 | 39 | 1021.1 |
| 20260831163515 | 86 | 0 | 2.0 | 5.0 | 0.00 | 0.00 | 0.00 | 40 | 1020.8 |
| 20260831162515 | 85 | 0 | 3.0 | 5.0 | 0.00 | 0.00 | 0.00 | 40 | 1020.7 |
| 20260831155515 | 84 | 0 | 3.0 | 8.0 | 0.00 | 0.00 | 0.00 | 41 | 1020.8 |
| 20260831154635 | 83 | 0 | 2.0 | 5.0 | 0.00 | 0.00 | 0.00 | 44 | 1020.6 |
| 20260831153515 | 82 | 0 | 3.0 | 6.0 | 0.00 | 0.00 | 0.00 | 44 | 1020.4 |
| 20260831152515 | 82 | 0 | 3.0 | 6.0 | 0.00 | 0.00 | 0.00 | 44 | 1020.0 |
| 20260831151515 | 82 | 0 | 2.0 | 13.0 | 0.00 | 0.00 | 0.00 | 45 | 1019.6 |
| 20260831150515 | 81 | 0 | 3.0 | 6.0 | 0.00 | 0.00 | 0.00 | 45 | 1019.5 |
| 20260831145555 | 80 | 0 | 3.0 | 6.0 | 0.00 | 0.00 | 0.00 | 46 | 1019.6 |
| 20260831143555 | 79 | 0 | 5.0 | 9.0 | 0.00 | 0.00 | 0.00 | 47 | 1020.0 |
| 20260831142515 | 78 | 0 | 4.0 | 11.0 | 0.00 | 0.00 | 0.00 | 48 | 1020.0 |
| 20260831141515 | 77 | 0 | 5.0 | 11.0 | 0.00 | 0.00 | 0.00 | 49 | 1019.9 |
| 20260831133555 | 75 | 0 | 4.0 | 10.0 | 0.00 | 0.00 | 0.00 | 52 | 1020.0 |
| 20260831132555 | 74 | 0 | 2.0 | 9.0 | 0.00 | 0.00 | 0.00 | 53 | 1019.9 |
| 20260831130515 | 72 | 0 | 2.0 | 5.0 | 0.00 | 0.00 | 0.00 | 56 | 1019.4 |
| 20260831125555 | 72 | 0 | 1.0 | 4.0 | 0.00 | 0.00 | 0.00 | 55 | 1019.5 |
| 20260831124555 | 72 | 0 | 2.0 | 4.0 | 0.00 | 0.00 | 0.00 | 54 | 1019.4 |
| 20260831123515 | 72 | 0 | 0.0 | 3.0 | 0.00 | 0.00 | 0.00 | 53 | 1019.4 |
| 20260831122555 | 73 | 0 | 1.0 | 5.0 | 0.00 | 0.00 | 0.00 | 52 | 1019.4 |
| 20260831121635 | 73 | 0 | 3.0 | 9.0 | 0.00 | 0.00 | 0.00 | 52 | 1019.5 |
| 20260831115515 | 74 | 0 | 4.0 | 10.0 | 0.00 | 0.00 | 0.00 | 51 | 1019.3 |
| 20260831114555 | 74 | 0 | 2.0 | 6.0 | 0.00 | 0.00 | 0.00 | 50 | 1019.5 |
| 20260831113555 | 74 | 0 | 5.0 | 9.0 | 0.00 | 0.00 | 0.00 | 50 | 1019.6 |
| 20260831112515 | 75 | 0 | 5.0 | 12.0 | 0.00 | 0.00 | 0.00 | 48 | 1019.5 |
| 20260831111635 | 75 | 0 | 4.0 | 11.0 | 0.00 | 0.00 | 0.00 | 45 | 1019.4 |
| 20260831104515 | 72 | 0 | 1.0 | 3.0 | 0.00 | 0.00 | 0.00 | 46 | 1019.0 |
| 20260831103517 | 73 | 0 | 0.0 | 2.0 | 0.00 | 0.00 | 0.00 | 46 | 1018.8 |
| 20260831101557 | 75 | 0 | 1.0 | 3.0 | 0.00 | 0.00 | 0.00 | 44 | 1019.1 |
| 20260831100517 | 77 | 0 | 1.0 | 2.0 | 0.00 | 0.00 | 0.00 | 42 | 1019.3 |
| 20260831095516 | 77 | 0 | 0.0 | 2.0 | 0.00 | 0.00 | 0.00 | 42 | 1019.4 |
| 20260831094516 | 77 | 0.0 | 6.0 | 0.00 | 0.00 | 0.00 | 42 | 1019.3 | |
| 20260831093637 | 76 | 0 | 1.0 | 4.0 | 0.00 | 0.00 | 0.00 | 44 | 1019.0 |
| 20260831092516 | 76 | 0 | 1.0 | 2.0 | 0.00 | 0.00 | 0.00 | 42 | 1018.9 |
| 20260831091557 | 77 | 0 | 1.0 | 2.0 | 0.00 | 0.00 | 0.00 | 41 | 1018.7 |
| 20260831090516 | 78 | 0 | 1.0 | 2.0 | 0.00 | 0.00 | 0.00 | 39 | 1018.6 |
| 20260831085557 | 79 | 0 | 1.0 | 3.0 | 0.00 | 0.00 | 0.00 | 38 | 1018.4 |
| 20260831084637 | 81 | 0 | 0.0 | 2.0 | 0.00 | 0.00 | 0.00 | 36 | 1018.8 |
| 20260831083516 | 82 | 0 | 0.0 | 1.0 | 0.00 | 0.00 | 0.00 | 36 | 1018.7 |
| 20260831081516 | 83 | 0 | 3.0 | 11.0 | 0.00 | 0.00 | 0.00 | 34 | 1018.9 |
| 20260831080556 | 84 | 0 | 4.0 | 17.0 | 0.00 | 0.00 | 0.00 | 34 | 1018.9 |
| 20260831075516 | 83 | 0 | 6.0 | 15.0 | 0.00 | 0.00 | 0.00 | 34 | 1018.7 |
| 20260831074516 | 83 | 0 | 4.0 | 12.0 | 0.00 | 0.00 | 0.00 | 34 | 1018.7 |
| 20260831073516 | 81 | 0 | 3.0 | 11.0 | 0.00 | 0.00 | 0.00 | 35 | 1018.6 |
| 20260831072516 | 82 | 0 | 1.0 | 4.0 | 0.00 | 0.00 | 0.00 | 35 | 1018.6 |
| 20260831071516 | 83 | 0.0 | 1.0 | 0.00 | 0.00 | 0.00 | 34 | 1018.6 | |
| 20260831065516 | 84 | 0 | 2.0 | 8.0 | 0.00 | 0.00 | 0.00 | 34 | 1018.4 |
| 20260831064516 | 84 | 0 | 3.0 | 10.0 | 0.00 | 0.00 | 0.00 | 33 | 1018.5 |
| 20260831063556 | 85 | 0 | 3.0 | 10.0 | 0.00 | 0.00 | 0.00 | 33 | 1018.3 |
| 20260831062556 | 85 | 0 | 4.0 | 14.0 | 0.00 | 0.00 | 0.00 | 33 | 1018.2 |
| 20260831060516 | 85 | 0 | 3.0 | 11.0 | 0.00 | 0.00 | 0.00 | 34 | 1017.9 |
| 20260831054515 | 85 | 0 | 3.0 | 9.0 | 0.00 | 0.00 | 0.00 | 33 | 1017.7 |
| 20260831053515 | 86 | 0 | 3.0 | 12.0 | 0.00 | 0.00 | 0.00 | 32 | 1017.7 |
| 20260831052515 | 86 | 0 | 4.0 | 11.0 | 0.00 | 0.00 | 0.00 | 32 | 1017.6 |
| 20260831051635 | 87 | 0 | 3.0 | 10.0 | 0.00 | 0.00 | 0.00 | 31 | 1017.5 |
| 20260831050555 | 87 | 0 | 4.0 | 13.0 | 0.00 | 0.00 | 0.00 | 31 | 1017.5 |
| 20260831045635 | 88 | 0 | 4.0 | 10.0 | 0.00 | 0.00 | 0.00 | 30 | 1017.4 |
| 20260831044515 | 88 | 0 | 3.0 | 6.0 | 0.00 | 0.00 | 0.00 | 29 | 1017.5 |
| 20260831043515 | 88 | 0 | 2.0 | 6.0 | 0.00 | 0.00 | 0.00 | 29 | 1017.2 |
| 20260831042515 | 88 | 0 | 3.0 | 6.0 | 0.00 | 0.00 | 0.00 | 28 | 1017.0 |
| 20260831040555 | 88 | 0 | 1.0 | 3.0 | 0.00 | 0.00 | 0.00 | 27 | 1016.8 |
| 20260831035515 | 89 | 0 | 1.0 | 4.0 | 0.00 | 0.00 | 0.00 | 26 | 1016.6 |
| 20260831034515 | 90 | 0 | 3.0 | 6.0 | 0.00 | 0.00 | 0.00 | 25 | 1016.5 |
| 20260831033555 | 90 | 0 | 3.0 | 6.0 | 0.00 | 0.00 | 0.00 | 26 | 1016.2 |